Change the Weather History Date:

Saturday, November 10, 2012

  Actual Average Record
Temperature  
Mean Temperature 64 °F -  
Max Temperature 78 °F 59 °F 81 °F (1980)
Min Temperature 48 °F 31 °F 9 °F (1950)
Degree Days  
Heating Degree Days 1    
Growing Degree Days 14 (Base 50)    
Moisture  
Dew Point 38 °F    
Average Humidity 39    
Maximum Humidity 68    
Minimum Humidity 21    
Precipitation  
Precipitation 0.00 in - - ()
Sea Level Pressure  
Sea Level Pressure 29.65 in    
Wind  
Wind Speed 20 mph (SW)    
Max Wind Speed 44 mph    
Max Gust Speed 55 mph    
Visibility 8 miles    
Events      
Averages and records for this station are not official NWS values.
T = Trace of Precipitation, MM = Missing Value Source: NWS Daily Summary

Daily Weather History Graph

Daily Weather History Graph

Search for Another Location

Airport or City:

Trip Planner

Search our weather history database for the weather conditions in past years. The results will help you decide how hot, cold, wet, or windy it might be!

Date:

Astronomy

Nov. 10, 2012 Rise Set
Actual Time 7:17 AM CST 5:37 PM CST
Civil Twilight 6:50 AM CST 6:04 PM CST
Nautical Twilight 6:19 AM CST 6:35 PM CST
Astronomical Twilight 5:48 AM CST 7:06 PM CST
Moon 3:29 AM CST (11/10) 3:21 PM CST (11/10)
Length of Visible Light 11h 14m
Length of Day
10h 19m
Waning Crescent, 14% of the Moon is Illuminated
Nov 10
Waning Crescent
Nov 13
New
Nov 20
First Quarter
Nov 28
Full
Dec 6
Last Quarter

Hourly Weather History & Observations

Time (CST) Temp. Dew Point Humidity Pressure Visibility Wind Dir Wind Speed Gust Speed Precip Events Conditions
12:15 AM 62.6 °F 37.4 °F 39% 29.73 in 10.0 mi SW 17.3 mph 23.0 mph N/A   Clear
12:35 AM 62.6 °F 37.4 °F 39% 29.74 in 10.0 mi WSW 13.8 mph - N/A   Clear
12:55 AM 59.0 °F 35.6 °F 42% 29.74 in 10.0 mi SSW 13.8 mph - N/A   Clear
1:15 AM 57.2 °F 35.6 °F 44% 29.73 in 10.0 mi SW 13.8 mph - N/A   Clear
1:35 AM 57.2 °F 37.4 °F 48% 29.73 in 10.0 mi SSW 13.8 mph - N/A   Clear
1:55 AM 55.4 °F 35.6 °F 47% 29.75 in 10.0 mi SSW 11.5 mph - N/A   Clear
2:15 AM 55.4 °F 37.4 °F 51% 29.74 in 10.0 mi SW 13.8 mph - N/A   Clear
2:35 AM 57.2 °F 37.4 °F 48% 29.74 in 10.0 mi SW 13.8 mph - N/A   Clear
2:55 AM 57.2 °F 37.4 °F 48% 29.74 in 10.0 mi SW 12.7 mph - N/A   Clear
3:15 AM 55.4 °F 37.4 °F 51% 29.73 in 10.0 mi SW 11.5 mph - N/A   Clear
3:35 AM 55.4 °F 37.4 °F 51% 29.73 in 10.0 mi SSW 16.1 mph - N/A   Clear
3:55 AM 59.0 °F 39.2 °F 48% 29.72 in 10.0 mi SSW 18.4 mph - N/A   Clear
4:15 AM 59.0 °F 39.2 °F 48% 29.72 in 10.0 mi SSW 16.1 mph - N/A   Clear
4:35 AM 57.2 °F 39.2 °F 51% 29.72 in 10.0 mi SSW 13.8 mph - N/A   Clear
4:55 AM 57.2 °F 39.2 °F 51% 29.71 in 10.0 mi SSW 13.8 mph - N/A   Clear
5:15 AM 55.4 °F 39.2 °F 54% 29.71 in 10.0 mi SSW 11.5 mph - N/A   Clear
5:35 AM 55.4 °F 39.2 °F 54% 29.69 in 10.0 mi SSW 10.4 mph - N/A   Clear
5:55 AM 53.6 °F 37.4 °F 54% 29.69 in 10.0 mi SW 10.4 mph - N/A   Clear
6:15 AM 51.8 °F 37.4 °F 58% 29.68 in 10.0 mi SW 9.2 mph - N/A   Clear
6:35 AM 51.8 °F 39.2 °F 62% 29.68 in 10.0 mi SSW 11.5 mph - N/A   Clear
6:55 AM 53.6 °F 41.0 °F 62% 29.68 in 10.0 mi SSW 13.8 mph - N/A   Clear
7:15 AM 55.4 °F 44.6 °F 67% 29.68 in 10.0 mi SSW 13.8 mph - N/A   Clear
7:35 AM 55.4 °F 44.6 °F 67% 29.68 in 10.0 mi South 15.0 mph - N/A   Clear
7:55 AM 59.0 °F 48.2 °F 67% 29.68 in 10.0 mi South 18.4 mph - N/A   Clear
8:15 AM 60.8 °F 50.0 °F 68% 29.68 in 10.0 mi South 17.3 mph 25.3 mph N/A   Clear
8:35 AM 62.6 °F 51.8 °F 68% 29.68 in 10.0 mi South 23.0 mph 29.9 mph N/A   Clear
8:55 AM 62.6 °F 51.8 °F 68% 29.68 in 10.0 mi South 24.2 mph 32.2 mph N/A   Clear
9:15 AM 64.4 °F 51.8 °F 64% 29.67 in 10.0 mi South 26.5 mph 33.4 mph N/A   Clear
9:35 AM 66.2 °F 51.8 °F 60% 29.66 in 10.0 mi South 25.3 mph 35.7 mph N/A   Clear
9:55 AM 68.0 °F 51.8 °F 56% 29.65 in 10.0 mi South 23.0 mph 36.8 mph N/A   Clear
10:15 AM 69.8 °F 50.0 °F 49% 29.64 in 10.0 mi South 31.1 mph 38.0 mph N/A   Clear
10:35 AM 71.6 °F 48.2 °F 43% 29.64 in 10.0 mi South 28.8 mph 41.4 mph N/A   Clear
10:55 AM 73.4 °F 46.4 °F 38% 29.63 in 10.0 mi South 34.5 mph 42.6 mph N/A   Clear
11:15 AM 75.2 °F 46.4 °F 36% 29.62 in 9.0 mi SSW 34.5 mph 46.0 mph N/A   Clear
11:35 AM 75.2 °F 46.4 °F 36% 29.62 in 8.0 mi SSW 32.2 mph 43.7 mph N/A   Clear
11:55 AM 77.0 °F 44.6 °F 32% 29.61 in 7.0 mi SSW 38.0 mph 46.0 mph N/A   Mostly Cloudy
12:15 PM 77.0 °F 44.6 °F 32% 29.59 in 4.0 mi SSW 35.7 mph 47.2 mph N/A   Overcast
12:35 PM 77.0 °F 42.8 °F 29% 29.58 in 4.0 mi SSW 43.7 mph 55.2 mph N/A   Overcast
12:55 PM 78.8 °F 42.8 °F 28% 29.58 in 4.0 mi SSW 39.1 mph 50.6 mph N/A   Overcast
1:15 PM 78.8 °F 42.8 °F 28% 29.57 in 3.0 mi SSW 32.2 mph 50.6 mph N/A   Overcast
1:35 PM 78.8 °F 42.8 °F 28% 29.56 in 4.0 mi SSW 40.3 mph 49.5 mph N/A   Overcast
1:55 PM 78.8 °F 39.2 °F 24% 29.55 in 4.0 mi SSW 38.0 mph 50.6 mph N/A   Overcast
2:15 PM 78.8 °F 39.2 °F 24% 29.55 in 4.0 mi SSW 38.0 mph 50.6 mph N/A   Overcast
2:35 PM 78.8 °F 39.2 °F 24% 29.54 in 4.0 mi SW 39.1 mph 49.5 mph N/A   Overcast
2:55 PM 78.8 °F 37.4 °F 23% 29.53 in 2.5 mi SW 39.1 mph 50.6 mph N/A   Overcast
3:15 PM 78.8 °F 35.6 °F 21% 29.53 in 2.5 mi SW 35.7 mph 50.6 mph N/A   Overcast
3:35 PM 77.0 °F 35.6 °F 22% 29.54 in 3.0 mi SW 38.0 mph 47.2 mph N/A   Overcast
3:55 PM 75.2 °F 35.6 °F 24% 29.54 in 5.0 mi SW 28.8 mph 42.6 mph N/A   Overcast
4:15 PM 75.2 °F 35.6 °F 24% 29.54 in 6.0 mi SW 36.8 mph 48.3 mph N/A   Overcast
4:35 PM 75.2 °F 35.6 °F 24% 29.55 in 5.0 mi SW 33.4 mph 43.7 mph N/A   Overcast
4:55 PM 73.4 °F 35.6 °F 25% 29.57 in 8.0 mi SW 23.0 mph 35.7 mph N/A   Mostly Cloudy
5:15 PM 73.4 °F 35.6 °F 25% 29.56 in 5.0 mi SW 27.6 mph 35.7 mph N/A   Overcast
5:35 PM 71.6 °F 35.6 °F 27% 29.57 in 9.0 mi WSW 21.9 mph 31.1 mph N/A   Overcast
5:55 PM 71.6 °F 33.8 °F 25% 29.58 in 9.0 mi SW 27.6 mph 32.2 mph N/A   Overcast
6:15 PM 71.6 °F 33.8 °F 25% 29.59 in 9.0 mi WSW 25.3 mph 34.5 mph N/A   Overcast
6:35 PM 69.8 °F 33.8 °F 27% 29.61 in 10.0 mi WSW 18.4 mph - N/A   Mostly Cloudy
6:55 PM 69.8 °F 33.8 °F 27% 29.61 in 10.0 mi WSW 17.3 mph - N/A   Scattered Clouds
7:15 PM 66.2 °F 33.8 °F 30% 29.63 in 10.0 mi West 15.0 mph - N/A   Partly Cloudy
7:35 PM 66.2 °F 33.8 °F 30% 29.63 in 10.0 mi West 16.1 mph - N/A   Scattered Clouds
7:55 PM 64.4 °F 33.8 °F 32% 29.63 in 10.0 mi West 19.6 mph 25.3 mph N/A   Mostly Cloudy
8:15 PM 64.4 °F 32.0 °F 30% 29.63 in 10.0 mi West 18.4 mph 25.3 mph N/A   Partly Cloudy
8:35 PM 62.6 °F 30.2 °F 30% 29.64 in 10.0 mi West 19.6 mph - N/A   Clear
8:55 PM 60.8 °F 30.2 °F 31% 29.65 in 10.0 mi West 19.6 mph 27.6 mph N/A   Clear
9:35 PM 57.2 °F 21.2 °F 25% 29.67 in 10.0 mi WNW 20.7 mph 25.3 mph N/A   Partly Cloudy
10:15 PM 53.6 °F 15.8 °F 22% 29.69 in 10.0 mi WNW 20.7 mph 26.5 mph N/A   Partly Cloudy
10:35 PM 51.8 °F 12.2 °F 21% 29.72 in 10.0 mi WNW 17.3 mph - N/A   Clear
10:55 PM 51.8 °F 12.2 °F 21% 29.73 in 10.0 mi WNW 13.8 mph - N/A   Clear
11:35 PM 50.0 °F 12.2 °F 22% 29.79 in 10.0 mi NW 3.5 mph - N/A   Mostly Cloudy
11:55 PM 48.2 °F 12.2 °F 24% 29.80 in 10.0 mi NW 6.9 mph - N/A   Overcast